Weather History for KLBL - March, 2013

Change the Weather History Date:

Thursday, March 21, 2013

  Actual Average Record
Temperature  
Mean Temperature 50 °F -  
Max Temperature 64 °F 62 °F 85 °F (1975)
Min Temperature 35 °F 31 °F 10 °F (1955)
Degree Days  
Heating Degree Days 16    
Moisture  
Dew Point 27 °F    
Average Humidity 47    
Maximum Humidity 61    
Minimum Humidity 34    
Precipitation  
Precipitation 0.00 in - - ()
Sea Level Pressure  
Sea Level Pressure 29.64 in    
Wind  
Wind Speed 13 mph (East)    
Max Wind Speed 26 mph    
Max Gust Speed 33 mph    
Visibility 10 miles    
Events      
Averages and records for this station are not official NWS values.
T = Trace of Precipitation, MM = Missing Value Source: NWS Daily Summary

Daily Weather History Graph

Daily Weather History Graph

Search for Another Location

Airport or City:

Trip Planner

Search our weather history database for the weather conditions in past years. The results will help you decide how hot, cold, wet, or windy it might be!

Date:

Astronomy

Mar. 21, 2013 Rise Set
Actual Time 7:45 AM CDT 7:56 PM CDT
Civil Twilight 7:19 AM CDT 8:22 PM CDT
Nautical Twilight 6:49 AM CDT 8:53 PM CDT
Astronomical Twilight 6:18 AM CDT 9:24 PM CDT
Moon 2:35 PM CDT (3/21) 4:01 AM CDT (3/21)
Length of Visible Light 13h 03m
Length of Day
12h 11m
Waxing Gibbous, 69% of the Moon is Illuminated
Mar 21
Waxing Gibbous
Mar 27
Full
Apr 2
Last Quarter
Apr 10
New
Apr 18
First Quarter

Hourly Weather History & Observations

Time (CDT) Temp. Windchill Dew Point Humidity Pressure Visibility Wind Dir Wind Speed Gust Speed Precip Events Conditions
12:15 AM 46.4 °F 39.2 °F 23.0 °F 40% 29.81 in 10.0 mi SSE 18.4 mph 23.0 mph N/A   Clear
12:35 AM 46.4 °F 39.2 °F 23.0 °F 40% 29.80 in 10.0 mi SSE 18.4 mph 24.2 mph N/A   Clear
1:15 AM 44.6 °F 36.6 °F 23.0 °F 43% 29.78 in 10.0 mi South 19.6 mph 24.2 mph N/A   Clear
1:35 AM 44.6 °F 36.4 °F 23.0 °F 43% 29.77 in 10.0 mi South 20.7 mph - N/A   Clear
1:55 AM 44.6 °F 37.2 °F 21.2 °F 39% 29.76 in 10.0 mi South 17.3 mph - N/A   Clear
2:15 AM 44.6 °F 37.4 °F 21.2 °F 39% 29.75 in 10.0 mi South 16.1 mph - N/A   Clear
2:35 AM 44.6 °F 37.2 °F 23.0 °F 43% 29.74 in 10.0 mi South 17.3 mph - N/A   Clear
2:55 AM 44.6 °F 37.2 °F 21.2 °F 39% 29.73 in 10.0 mi SSE 17.3 mph - N/A   Clear
3:15 AM 42.8 °F 35.4 °F 21.2 °F 42% 29.73 in 10.0 mi South 15.0 mph - N/A   Clear
3:35 AM 42.8 °F 36.2 °F 21.2 °F 42% 29.72 in 10.0 mi SSE 12.7 mph - N/A   Clear
3:55 AM 42.8 °F 37.0 °F 21.2 °F 42% 29.71 in 10.0 mi SSE 10.4 mph - N/A   Clear
4:15 AM 41.0 °F 34.7 °F 21.2 °F 45% 29.70 in 10.0 mi SSE 10.4 mph - N/A   Clear
4:35 AM 39.2 °F 33.0 °F 21.2 °F 49% 29.69 in 10.0 mi South 9.2 mph - N/A   Clear
4:55 AM 39.2 °F 33.0 °F 21.2 °F 49% 29.67 in 10.0 mi SSE 9.2 mph - N/A   Clear
5:15 AM 37.4 °F 30.8 °F 21.2 °F 52% 29.66 in 10.0 mi South 9.2 mph - N/A   Clear
5:35 AM 37.4 °F 30.8 °F 21.2 °F 52% 29.65 in 10.0 mi South 9.2 mph - N/A   Clear
5:55 AM 37.4 °F 32.1 °F 21.2 °F 52% 29.64 in 10.0 mi South 6.9 mph - N/A   Clear
6:15 AM 37.4 °F 32.8 °F 23.0 °F 56% 29.64 in 10.0 mi South 5.8 mph - N/A   Clear
6:35 AM 37.4 °F 33.8 °F 21.2 °F 52% 29.64 in 10.0 mi South 4.6 mph - N/A   Clear
6:55 AM 35.6 °F 29.9 °F 21.2 °F 56% 29.64 in 10.0 mi South 6.9 mph - N/A   Clear
7:15 AM 35.6 °F - 23.0 °F 60% 29.64 in 10.0 mi Calm Calm - N/A   Clear
7:55 AM 37.4 °F 33.8 °F 23.0 °F 56% 29.64 in 10.0 mi WSW 4.6 mph - N/A   Clear
8:15 AM 35.6 °F - 23.0 °F 60% 29.63 in 9.0 mi Calm Calm - N/A   Clear
8:35 AM 35.6 °F - 23.0 °F 60% 29.63 in 2.5 mi Calm Calm - N/A   Clear
8:55 AM 39.2 °F - 26.6 °F 61% 29.63 in 8.0 mi Calm Calm - N/A   Clear
9:15 AM 39.2 °F - 26.6 °F 61% 29.63 in 10.0 mi Calm Calm - N/A   Clear
9:35 AM 42.8 °F 39.3 °F 26.6 °F 53% 29.63 in 10.0 mi North 5.8 mph - N/A   Clear
9:55 AM 42.8 °F 37.5 °F 26.6 °F 53% 29.62 in 10.0 mi North 9.2 mph - N/A   Clear
10:15 AM 42.8 °F 38.0 °F 26.6 °F 53% 29.62 in 10.0 mi North 8.1 mph - N/A   Clear
10:35 AM 44.6 °F 41.4 °F 28.4 °F 53% 29.62 in 10.0 mi NNE 5.8 mph - N/A   Clear
10:55 AM 44.6 °F 43.1 °F 28.4 °F 53% 29.62 in 10.0 mi ENE 3.5 mph - N/A   Clear
11:35 AM 46.4 °F 42.4 °F 28.4 °F 50% 29.62 in 10.0 mi NNE 8.1 mph - N/A   Clear
11:55 AM 48.2 °F - 30.2 °F 50% 29.62 in 10.0 mi NNE 5.8 mph - N/A   Clear
12:15 PM 50.0 °F - 30.2 °F 47% 29.62 in 10.0 mi Calm Calm - N/A   Clear
12:35 PM 51.8 °F - 30.2 °F 44% 29.61 in 10.0 mi East 4.6 mph - N/A   Clear
12:55 PM 51.8 °F - 30.2 °F 44% 29.60 in 10.0 mi East 5.8 mph - N/A   Clear
1:15 PM 53.6 °F - 32.0 °F 44% 29.59 in 10.0 mi NNE 8.1 mph - N/A   Clear
1:35 PM 55.4 °F - 33.8 °F 44% 29.58 in 10.0 mi East 8.1 mph - N/A   Clear
1:55 PM 57.2 °F - 33.8 °F 41% 29.57 in 10.0 mi ENE 8.1 mph - N/A   Clear
2:15 PM 57.2 °F - 33.8 °F 41% 29.56 in 10.0 mi NE 8.1 mph - N/A   Clear
2:35 PM 60.8 °F - 33.8 °F 36% 29.55 in 10.0 mi ENE 10.4 mph - N/A   Clear
2:55 PM 62.6 °F - 33.8 °F 34% 29.54 in 10.0 mi ENE 8.1 mph - N/A   Clear
3:15 PM 62.6 °F - 33.8 °F 34% 29.52 in 10.0 mi East 10.4 mph 17.3 mph N/A   Clear
3:35 PM 64.4 °F - 35.6 °F 34% 29.52 in 10.0 mi ENE 15.0 mph - N/A   Clear
3:55 PM 62.6 °F - 33.8 °F 34% 29.53 in 10.0 mi East 11.5 mph 19.6 mph N/A   Clear
4:15 PM 62.6 °F - 33.8 °F 34% 29.53 in 10.0 mi ENE 16.1 mph 21.9 mph N/A   Clear
4:35 PM 62.6 °F - 33.8 °F 34% 29.54 in 10.0 mi ENE 13.8 mph - N/A   Clear
4:55 PM 60.8 °F - 33.8 °F 36% 29.56 in 10.0 mi East 12.7 mph - N/A   Scattered Clouds
5:15 PM 60.8 °F - 33.8 °F 36% 29.57 in 10.0 mi NE 13.8 mph - N/A   Mostly Cloudy
5:35 PM 59.0 °F - 33.8 °F 39% 29.60 in 10.0 mi North 16.1 mph - N/A   Overcast
5:55 PM 60.8 °F - 33.8 °F 36% 29.53 in 10.0 mi East 19.6 mph - N/A   Mostly Cloudy
6:15 PM 60.8 °F - 35.6 °F 39% 29.54 in 10.0 mi East 20.7 mph 26.5 mph N/A   Partly Cloudy
6:35 PM 59.0 °F - 33.8 °F 39% 29.54 in 10.0 mi East 23.0 mph 28.8 mph N/A   Clear
6:55 PM 57.2 °F - 30.2 °F 36% 29.55 in 10.0 mi East 26.5 mph 32.2 mph N/A   Clear
7:15 PM 53.6 °F - 30.2 °F 41% 29.56 in 10.0 mi East 23.0 mph 33.4 mph N/A   Clear
7:35 PM 51.8 °F - 28.4 °F 41% 29.57 in 10.0 mi East 20.7 mph 29.9 mph N/A   Clear
7:55 PM 50.0 °F - 28.4 °F 43% 29.57 in 10.0 mi East 18.4 mph 28.8 mph N/A   Clear
8:15 PM 48.2 °F - 28.4 °F 46% 29.59 in 10.0 mi East 20.7 mph 27.6 mph N/A   Scattered Clouds
8:35 PM 46.4 °F 38.7 °F 28.4 °F 50% 29.60 in 10.0 mi East 20.7 mph 26.5 mph N/A   Scattered Clouds
8:55 PM 46.4 °F 38.7 °F 28.4 °F 50% 29.61 in 10.0 mi East 20.7 mph 25.3 mph N/A   Clear
9:15 PM 44.6 °F 36.6 °F 28.4 °F 53% 29.63 in 10.0 mi East 19.6 mph - N/A   Clear
9:35 PM 44.6 °F 37.2 °F 28.4 °F 53% 29.64 in 10.0 mi East 17.3 mph 26.5 mph N/A   Clear
9:55 PM 42.8 °F 33.5 °F 28.4 °F 57% 29.67 in 10.0 mi East 23.0 mph 28.8 mph N/A   Clear
10:15 PM 42.8 °F 34.3 °F 28.4 °F 57% 29.69 in 10.0 mi East 19.6 mph - N/A   Scattered Clouds
10:35 PM 41.0 °F 31.9 °F 26.6 °F 57% 29.70 in 10.0 mi East 19.6 mph 24.2 mph N/A   Scattered Clouds
10:55 PM 39.2 °F 30.2 °F 26.6 °F 61% 29.72 in 10.0 mi East 17.3 mph - N/A   Mostly Cloudy
11:15 PM 39.2 °F 30.2 °F 26.6 °F 61% 29.74 in 10.0 mi East 17.3 mph 21.9 mph N/A   Overcast
11:35 PM 37.4 °F 28.9 °F 24.8 °F 60% 29.80 in 10.0 mi NE 13.8 mph 21.9 mph N/A   Overcast
11:55 PM 37.4 °F 26.9 °F 24.8 °F 60% 29.81 in 10.0 mi NE 20.7 mph - N/A   Overcast